Volver al catálogo

COSMOS 1867 COOLANT

ActivoLEO
NORAD 39664·DEBRIS·🇷🇺 Russia

Lanzado Jul 10, 1987 desde Baikonur Cosmodrome

Loading…

Próximos Pases (próximas 24 horas)

TLE

ActualizadoSource: Space-Track

Época: Sep 14, 2026, 15:05 UTC

1 39664U 87060AB  26257.62858414  .00000130  00000-0  82560-4 0  9998
2 39664  65.0045 119.2509 0018035 280.4858  79.4195 14.33855843649388

Sigue COSMOS 1867 COOLANT en tiempo real con AllMySat

Download on the App Store